Location: Carthage
(33.8834°N, 106.6595°W)
Time: 13:19:07
(UTC+00:00)

Cosmos 2322 Rocket - Pass Details

Date: 13 February 2026
Orbit: 833 x 848 km, 71.0° (Epoch: 11 March)

Event Time Altitude Azimuth Distance (km) Brightness Sun altitude
Rises 12:52:06 0° 174° (S) 3,392 5.5 -13.2°
Reaches altitude 10° 12:54:47 10° 164° (SSE) 2,460 4.9 -12.7°
Maximum altitude 12:59:42 32° 103° (ESE) 1,426 4.3 -11.7°
Drops below altitude 10° 13:04:37 10° 42° (NE) 2,465 5.1 -10.6°
Sets 13:07:18 0° 33° (NNE) 3,401 5.7 -10.1°
